Вернуться в каталог

FENGYUN 1C DEB

АктивенSSO
NORAD 30746·DEBRIS·🇨🇳 China

Запущен May 10, 1999 с Taiyuan Satellite Launch Center

Loading…

Ближайшие Пролёты (ближайшие 24 часа)

TLE

СвежийSource: Space-Track

Эпоха: Sep 14, 2026, 08:52 UTC

1 30746U 99025ATG 26257.36995521  .00000698  00000-0  29698-3 0  9997
2 30746  99.0584  93.1287 0044793 241.6764 240.8569 14.28061089 13797

Отслеживайте FENGYUN 1C DEB в реальном времени с AllMySat

Download on the App Store